TimeEDT,TemperatureF,Dew PointF,Humidity,Sea Level PressureIn,VisibilityMPH,Wind Direction,Wind SpeedMPH,Gust SpeedMPH,PrecipitationIn,Events,Conditions,WindDirDegrees,DateUTC
1:55 AM,59.2,47.3,65,30.32,10.0,East,6.9,-,N/A,,Clear,80,2012-10-13 05:55:00
2:35 AM,57.7,47.5,69,30.33,10.0,ENE,5.8,-,N/A,,Clear,70,2012-10-13 06:35:00
2:55 AM,57.0,47.5,70,30.33,10.0,NE,6.9,-,N/A,,Clear,50,2012-10-13 06:55:00
3:15 AM,55.8,47.5,74,30.33,10.0,NE,8.1,-,N/A,,Clear,40,2012-10-13 07:15:00
3:35 AM,54.5,47.5,77,30.34,10.0,NE,6.9,-,N/A,,Clear,50,2012-10-13 07:35:00
3:55 AM,53.8,47.1,78,30.35,10.0,NE,6.9,-,N/A,,Clear,50,2012-10-13 07:55:00
4:15 AM,53.1,46.6,79,30.36,10.0,NE,4.6,-,N/A,,Clear,40,2012-10-13 08:15:00
4:35 AM,52.2,46.2,80,30.36,10.0,NE,4.6,-,N/A,,Clear,40,2012-10-13 08:35:00
4:55 AM,51.4,45.7,81,30.37,10.0,NE,4.6,-,N/A,,Clear,40,2012-10-13 08:55:00
5:15 AM,50.9,45.1,81,30.37,10.0,NE,5.8,-,N/A,,Clear,40,2012-10-13 09:15:00
5:35 AM,50.2,44.8,82,30.38,10.0,NNE,5.8,-,N/A,,Clear,30,2012-10-13 09:35:00
6:35 AM,48.6,44.6,86,30.40,10.0,NNE,4.6,-,N/A,,Clear,30,2012-10-13 10:35:00
6:55 AM,48.2,44.1,86,30.40,10.0,North,3.5,-,N/A,,Clear,10,2012-10-13 10:55:00
7:15 AM,47.7,43.9,87,30.41,10.0,NNE,3.5,-,N/A,,Clear,20,2012-10-13 11:15:00
7:35 AM,47.3,43.7,87,30.42,10.0,North,3.5,-,N/A,,Clear,360,2012-10-13 11:35:00
7:55 AM,47.1,43.7,88,30.43,10.0,North,5.8,-,N/A,,Clear,10,2012-10-13 11:55:00
8:15 AM,47.7,43.5,86,30.43,10.0,NNE,6.9,-,N/A,,Clear,20,2012-10-13 12:15:00
8:35 AM,48.6,43.2,82,30.44,10.0,NNE,6.9,-,N/A,,Clear,20,2012-10-13 12:35:00
8:55 AM,49.8,43.0,77,30.45,10.0,NNE,6.9,-,N/A,,Clear,30,2012-10-13 12:55:00
9:15 AM,51.3,42.6,72,30.45,10.0,NNE,8.1,-,N/A,,Clear,30,2012-10-13 13:15:00
9:55 AM,54.3,42.6,65,30.45,10.0,ENE,6.9,-,N/A,,Clear,60,2012-10-13 13:55:00
10:55 AM,59.0,44.1,58,30.45,10.0,ENE,3.5,-,N/A,,Clear,60,2012-10-13 14:55:00
11:15 AM,59.7,43.9,56,30.46,10.0,East,4.6,-,N/A,,Clear,80,2012-10-13 15:15:00
12:15 PM,63.7,43.2,47,30.44,10.0,East,8.1,-,N/A,,Clear,90,2012-10-13 16:15:00
12:35 PM,64.4,43.7,47,30.43,10.0,East,5.8,-,N/A,,Clear,90,2012-10-13 16:35:00
12:55 PM,65.1,44.4,47,30.43,10.0,SE,4.6,-,N/A,,Clear,130,2012-10-13 16:55:00
1:35 PM,66.2,45.5,47,30.41,10.0,NNE,4.6,-,N/A,,Clear,30,2012-10-13 17:35:00
1:55 PM,66.7,45.5,46,30.40,10.0,ENE,3.5,-,N/A,,Clear,60,2012-10-13 17:55:00
2:15 PM,67.3,45.7,46,30.39,10.0,Calm,Calm,-,N/A,,Clear,0,2012-10-13 18:15:00
2:35 PM,67.6,46.0,46,30.38,10.0,Calm,Calm,-,N/A,,Clear,0,2012-10-13 18:35:00
2:55 PM,68.4,46.2,45,30.37,10.0,NE,3.5,-,N/A,,Clear,50,2012-10-13 18:55:00
3:15 PM,68.7,46.0,44,30.36,10.0,East,3.5,-,N/A,,Clear,90,2012-10-13 19:15:00
3:35 PM,69.4,46.2,43,30.36,10.0,ESE,6.9,-,N/A,,Clear,120,2012-10-13 19:35:00
3:55 PM,69.6,46.4,43,30.35,10.0,Calm,Calm,-,N/A,,Clear,0,2012-10-13 19:55:00
4:15 PM,69.6,46.0,43,30.35,10.0,East,3.5,-,N/A,,Clear,80,2012-10-13 20:15:00
4:35 PM,69.4,46.2,43,30.34,10.0,Calm,Calm,-,N/A,,Clear,0,2012-10-13 20:35:00
4:55 PM,69.4,46.6,44,30.34,10.0,Calm,Calm,-,N/A,,Clear,0,2012-10-13 20:55:00
5:15 PM,69.3,47.1,45,30.35,10.0,Calm,Calm,-,N/A,,Clear,0,2012-10-13 21:15:00
5:55 PM,68.4,48.2,48,30.34,10.0,Calm,Calm,-,N/A,,Clear,0,2012-10-13 21:55:00
6:35 PM,65.8,50.0,57,30.34,10.0,Calm,Calm,-,N/A,,Clear,0,2012-10-13 22:35:00
6:55 PM,64.0,50.4,61,30.34,10.0,Calm,Calm,-,N/A,,Clear,0,2012-10-13 22:55:00
7:15 PM,61.7,51.4,69,30.34,10.0,Calm,Calm,-,N/A,,Clear,0,2012-10-13 23:15:00
7:35 PM,61.0,50.4,68,30.34,10.0,Calm,Calm,-,N/A,,Clear,0,2012-10-13 23:35:00
7:55 PM,60.8,50.2,68,30.34,10.0,East,3.5,-,N/A,,Clear,90,2012-10-13 23:55:00
8:15 PM,59.9,50.0,70,30.35,10.0,Calm,Calm,-,N/A,,Clear,0,2012-10-14 00:15:00
8:35 PM,59.4,49.6,70,30.35,10.0,Calm,Calm,-,N/A,,Clear,0,2012-10-14 00:35:00
9:15 PM,57.6,50.0,76,30.35,10.0,Calm,Calm,-,N/A,,Clear,0,2012-10-14 01:15:00
10:35 PM,55.0,49.5,81,30.35,10.0,Calm,Calm,-,N/A,,Clear,0,2012-10-14 02:35:00
10:55 PM,55.4,49.3,80,30.35,10.0,Calm,Calm,-,N/A,,Clear,0,2012-10-14 02:55:00
11:15 PM,55.2,49.1,80,30.35,10.0,Calm,Calm,-,N/A,,Clear,0,2012-10-14 03:15:00
11:55 PM,54.3,49.1,83,30.34,10.0,East,3.5,-,N/A,,Clear,80,2012-10-14 03:55:00